Simultaneous Nadir Overpasses (SNOs) Predictions

Prediction of SNOs between LANDSAT-8 and METOP-A Satellite Orbit:

Table of predicted SNOs for the next 14.0 days since TLE Epoch: 11/15/2015
Index Date (LANDSAT-8) Time (LANDSAT-8) Lat,Lon (LANDSAT-8) SZA (LANDSAT-8 ) Date (METOP-A) Time (METOP-A) Lat,Lon (METOP-A) SZA (METOP-A ) Distance(km) Time Diff (sec)
1 11/16/2015 14:25:37 -81.11,-176.62 77.83 11/16/2015 14:25:18 -81.11,-176.75 77.85 2.34 19
2 11/16/2015 15:15:02 81.14, -8.51 102.26 11/16/2015 15:15:56 81.14, -8.52 102.28 0.55 54
3 11/19/2015 09:59:53 -81.12,-110.17 77.16 11/19/2015 09:59:43 -81.12,-110.21 77.17 0.78 10
4 11/19/2015 10:49:18 81.14, 57.92 102.92 11/19/2015 10:50:21 81.14, 57.99 102.95 1.18 63
5 11/22/2015 04:45:00 80.63, 142.29 102.44 11/22/2015 04:43:46 80.81, 141.83 102.52 21.95 74
6
